WetterOnline ( https://www.wetteronline.de )

Wetter aktuell Lützow

Aktuelles Wetter: Boltenhagen (17m)

6-stündlich | Neueste Meldungen
Ortszeit Temperatur Wetter
Fr, 27.11. 13:00 6.2° C Nebel
Fr, 27.11. 7:00 -0.6° C fast wolkenlos
Fr, 27.11. 1:00 4.8° C wolkenlos
Do, 26.11. 19:00 5.1° C leicht bewölkt
Do, 26.11. 13:00 9.0° C bedeckt
Do, 26.11. 7:00 4.8° C bedeckt
Do, 26.11. 1:00 2.5° C bedeckt
Mi, 25.11. 19:00 2.0° C bedeckt
Ortszeit Temperatur Wetter
Fr, 27.11. 16:00 5.0° C Nebel
Fr, 27.11. 15:50 5.0° C Nebel
Fr, 27.11. 15:40 5.0° C Nebel
Fr, 27.11. 15:30 5.2° C Nebel
Fr, 27.11. 15:20 5.2° C Nebel
Fr, 27.11. 15:10 5.3° C Nebel
Fr, 27.11. 15:00 5.5° C Nebel
Fr, 27.11. 14:30 6.6° C leicht bewölkt
Fr, 27.11. 14:00 5.8° C Nebel
Fr, 27.11. 13:30 6.2° C Nebel
Fr, 27.11. 13:00 6.2° C Nebel
Ortszeit Relative Feuchte Sichtweite
Fr, 27.11. 13:00 95% 0.7 km
Fr, 27.11. 7:00 99% 6 km
Fr, 27.11. 1:00 97% 19 km
Do, 26.11. 19:00 93% 35 km
Do, 26.11. 13:00 94% 5.0 km
Do, 26.11. 7:00 97% 3.8 km
Do, 26.11. 1:00 99% 1.7 km
Mi, 25.11. 19:00 99% 2.4 km
Ortszeit Relative Feuchte Sichtweite
Fr, 27.11. 16:00 99% 100 m
Fr, 27.11. 15:50 99% -
Fr, 27.11. 15:40 99% -
Fr, 27.11. 15:30 99% 100 m
Fr, 27.11. 15:20 99% -
Fr, 27.11. 15:10 98% -
Fr, 27.11. 15:00 97% 0.2 km
Fr, 27.11. 14:30 95% 15 km
Fr, 27.11. 14:00 96% 100 m
Fr, 27.11. 13:30 95% 0.4 km
Fr, 27.11. 13:00 95% 0.7 km
Ortszeit Niederschlagsmenge Niederschlagsart
Fr, 27.11. 13:00 0.0 l/m2 in 6 Std. -
Fr, 27.11. 7:00 0.0 l/m2 in 12 Std. -
Fr, 27.11. 1:00 0.0 l/m2 in 6 Std. -
Do, 26.11. 19:00 0.1 l/m2 in 12 Std. -
Do, 26.11. 13:00 0.1 l/m2 in 6 Std. Regen
Do, 26.11. 7:00 0.0 l/m2 in 12 Std. -
Do, 26.11. 1:00 0.0 l/m2 in 6 Std. -
Mi, 25.11. 19:00 0.0 l/m2 in 12 Std. -
Ortszeit Niederschlagsmenge Niederschlagsart
Fr, 27.11. 16:00 0.0 l/m2 in 1 Std. -
Fr, 27.11. 15:50 keine Meldung -
Fr, 27.11. 15:40 keine Meldung -
Fr, 27.11. 15:30 0.0 l/m2 in 1 Std. -
Fr, 27.11. 15:20 keine Meldung -
Fr, 27.11. 15:10 keine Meldung -
Fr, 27.11. 15:00 0.0 l/m2 in 1 Std. -
Fr, 27.11. 14:30 0.0 l/m2 in 1 Std. -
Fr, 27.11. 14:00 0.0 l/m2 in 1 Std. -
Fr, 27.11. 13:30 0.0 l/m2 in 1 Std. -
Fr, 27.11. 13:00 0.0 l/m2 in 1 Std. -
Ortszeit Stärke Spitze Richtung
km/h Bft. km/h Grad Sektor
Fr, 27.11. 13:00 4 1 14 290° W
Fr, 27.11. 7:00 11 2 22 270° W
Fr, 27.11. 1:00 17 3 20 280° W
Do, 26.11. 19:00 13 3 30 260° W
Do, 26.11. 13:00 18 3 32 250° W
Do, 26.11. 7:00 18 3 29 220° SW
Do, 26.11. 1:00 17 3 31 210° SW
Mi, 25.11. 19:00 18 3 36 200° S
Ortszeit Stärke Spitze Richtung
km/h Bft. km/h Grad Sektor
Fr, 27.11. 16:00 0 0 4 - -
Fr, 27.11. 15:50 2 1 - 150° SO
Fr, 27.11. 15:40 4 1 - 130° SO
Fr, 27.11. 15:30 2 1 6 90° O
Fr, 27.11. 15:20 2 1 - 90° O
Fr, 27.11. 15:10 4 1 - 80° O
Fr, 27.11. 15:00 2 1 6 200° S
Fr, 27.11. 14:30 2 1 4 220° SW
Fr, 27.11. 14:00 0 0 4 - -
Fr, 27.11. 13:30 0 0 4 - -
Fr, 27.11. 13:00 4 1 7 290° W
Ortszeit Untergrenze Bedeckung Gattung
total tief tief mittel hoch
Fr, 27.11. 13:00 30 m 6/8 6/8 - - -
Fr, 27.11. 7:00 <30 m 0/8 0/8 - - -
Fr, 27.11. 1:00 - 0/8 0/8 - - -
Do, 26.11. 19:00 5400 m 3/8 3/8 - - -
Do, 26.11. 13:00 150 m 8/8 8/8 - - -
Do, 26.11. 7:00 150 m 8/8 8/8 - - -
Do, 26.11. 1:00 30 m 8/8 8/8 - - -
Mi, 25.11. 19:00 30 m 8/8 8/8 - - -
Ortszeit Bedeckungsgrad in Achtel und Wolkenuntergrenze
Fr, 27.11. 16:00 5(<30m)
Fr, 27.11. 15:50 5(<30m)
Fr, 27.11. 15:40 7(<30m)
Fr, 27.11. 15:30 6(<30m)
Fr, 27.11. 15:20 6(<30m)
Fr, 27.11. 15:10 4(<30m)
Fr, 27.11. 15:00 2(<30m)
Fr, 27.11. 14:30 2(<30m)
Fr, 27.11. 14:00 8(<30m)
Fr, 27.11. 13:30 7(<30m)
Fr, 27.11. 13:00 6(30m)
Ortszeit Luftdruck NN (hPa) Tendenz (hPa in 3 Std.)
Fr, 27.11. 13:00 1023 0,0
Fr, 27.11. 7:00 1021 + 0,4
Fr, 27.11. 1:00 1021 + 0,3
Do, 26.11. 19:00 1020 + 0,9
Do, 26.11. 13:00 1018 + 0,6
Do, 26.11. 7:00 1017 - 0,2
Do, 26.11. 1:00 1018 - 0,4
Mi, 25.11. 19:00 1017 + 0,1
Ortszeit Luftdruck NN (hPa) Tendenz (hPa in 3 Std.)
Fr, 27.11. 16:00 1023 + 0,1
Fr, 27.11. 15:50 1023 keine Meldung
Fr, 27.11. 15:40 1023 keine Meldung
Fr, 27.11. 15:30 1023 0,0
Fr, 27.11. 15:20 1023 keine Meldung
Fr, 27.11. 15:10 1023 keine Meldung
Fr, 27.11. 15:00 1023 - 0,2
Fr, 27.11. 14:30 1023 - 0,1
Fr, 27.11. 14:00 1022 - 0,3
Fr, 27.11. 13:30 1023 - 0,2
Fr, 27.11. 13:00 1023 0,0
Ortszeit Schneehöhe (cm)
Fr, 27.11. 13:00 0
Fr, 27.11. 7:00 0
Fr, 27.11. 1:00 0
Do, 26.11. 19:00 0
Do, 26.11. 13:00 0
Do, 26.11. 7:00 0
Do, 26.11. 1:00 0
Mi, 25.11. 19:00 0
Ortszeit Schneehöhe (cm)
Fr, 27.11. 16:00 0
Fr, 27.11. 15:50 0
Fr, 27.11. 15:40 0
Fr, 27.11. 15:30 0
Fr, 27.11. 15:20 0
Fr, 27.11. 15:10 0
Fr, 27.11. 15:00 0
Fr, 27.11. 14:30 0
Fr, 27.11. 14:00 0
Fr, 27.11. 13:30 0
Fr, 27.11. 13:00 0
Link zu dieser Seite / Seite empfehlen

Das Wetter in ...